Ypsilanti, MI

5:54 AM EDT on August 30, 2016 (GMT -0400)
Willow Run

Weather History for KYIP - October, 2013

Change the Weather History Date:

Thursday, October 24, 2013

  Actual Average Record
Temperature  
Mean Temperature 42 °F -  
Max Temperature 51 °F 60 °F 80 °F (2012)
Min Temperature 34 °F 41 °F 23 °F (1981)
Degree Days  
Heating Degree Days 23    
Moisture  
Dew Point 30 °F    
Average Humidity 66    
Maximum Humidity 82    
Minimum Humidity 38    
Precipitation  
Precipitation 0.00 in - - ()
Sea Level Pressure  
Sea Level Pressure 30.04 in    
Wind  
Wind Speed 9 mph (West)    
Max Wind Speed 17 mph    
Max Gust Speed 23 mph    
Visibility 10 miles    
Events      
Averages and records for this station are not official NWS values.
T = Trace of Precipitation, MM = Missing Value Source: NWS Daily Summary

Daily Weather History Graph

Daily Weather History Graph

Search for Another Location

Airport or City:

Trip Planner

Search our weather history database for the weather conditions in past years. The results will help you decide how hot, cold, wet, or windy it might be!

Date:

Astronomy

Oct. 24, 2013 Rise Set
Actual Time 7:57 AM EDT 6:38 PM EDT
Civil Twilight 7:29 AM EDT 7:06 PM EDT
Nautical Twilight 6:56 AM EDT 7:39 PM EDT
Astronomical Twilight 6:23 AM EDT 8:11 PM EDT
Moon 10:59 PM EDT (10/24) 1:00 PM EDT (10/24)
Length of Visible Light 11h 37m
Length of Day
10h 40m
Waning Gibbous, 71% of the Moon is Illuminated
Oct 24
Waning Gibbous
Oct 26
Last Quarter
Nov 3
New
Nov 10
First Quarter
Nov 17
Full

Hourly Weather History & Observations

Time (EDT) Temp. Windchill Dew Point Humidity Pressure Visibility Wind Dir Wind Speed Gust Speed Precip Events Conditions
12:53 AM 37.0 °F 31.6 °F 30.0 °F 76% 29.94 in 10.0 mi WSW 6.9 mph - N/A   Mostly Cloudy
1:53 AM 35.1 °F 28.6 °F 28.9 °F 78% 29.94 in 10.0 mi WSW 8.1 mph - N/A   Clear
2:53 AM 35.1 °F 27.9 °F 28.9 °F 78% 29.95 in 10.0 mi West 9.2 mph - N/A   Clear
3:53 AM 35.1 °F 27.9 °F 28.9 °F 78% 29.95 in 10.0 mi West 9.2 mph - N/A   Clear
4:53 AM 34.0 °F 28.0 °F 28.9 °F 82% 29.96 in 10.0 mi WSW 6.9 mph - N/A   Clear
5:53 AM 34.0 °F 28.0 °F 28.9 °F 82% 29.97 in 10.0 mi West 6.9 mph - N/A   Partly Cloudy
6:53 AM 36.0 °F 31.1 °F 30.0 °F 79% 29.98 in 10.0 mi West 5.8 mph - N/A   Overcast
7:53 AM 36.0 °F 30.3 °F 30.9 °F 82% 29.99 in 10.0 mi WSW 6.9 mph - N/A   Overcast
8:10 AM 37.4 °F 32.1 °F 30.2 °F 75% 29.98 in 10.0 mi WSW 6.9 mph - N/A   Overcast
8:53 AM 37.9 °F 32.1 °F 32.0 °F 79% 30.01 in 10.0 mi West 8.1 mph - N/A   Overcast
9:53 AM 39.9 °F 35.1 °F 33.1 °F 77% 30.02 in 10.0 mi West 6.9 mph - N/A   Overcast
10:53 AM 42.1 °F 36.6 °F 33.1 °F 70% 30.04 in 10.0 mi West 9.2 mph - N/A   Overcast
11:53 AM 45.0 °F 39.3 °F 32.0 °F 60% 30.04 in 10.0 mi West 11.5 mph - N/A   Overcast
12:10 PM 44.6 °F 38.8 °F 32.0 °F 61% 30.04 in 10.0 mi West 11.5 mph - N/A   Overcast
12:22 PM 46.4 °F 41.5 °F 32.0 °F 57% 30.04 in 10.0 mi WNW 10.4 mph - N/A   Scattered Clouds
12:53 PM 48.0 °F - 30.0 °F 50% 30.04 in 10.0 mi West 13.8 mph - N/A   Scattered Clouds
1:53 PM 50.0 °F - 28.0 °F 43% 30.04 in 10.0 mi WNW 12.7 mph - N/A   Mostly Cloudy
2:53 PM 46.9 °F - 26.1 °F 44% 30.04 in 10.0 mi NW 11.5 mph - 0.00 in   Scattered Clouds
3:53 PM 48.9 °F - 26.1 °F 41% 30.05 in 10.0 mi WNW 17.3 mph 23.0 mph N/A   Mostly Cloudy
4:53 PM 50.0 °F - 25.0 °F 38% 30.06 in 10.0 mi West 11.5 mph - N/A   Mostly Cloudy
5:53 PM 46.9 °F - 26.1 °F 44% 30.08 in 10.0 mi West 16.1 mph - N/A   Mostly Cloudy
6:53 PM 44.1 °F 37.4 °F 28.9 °F 55% 30.11 in 10.0 mi WNW 13.8 mph - N/A   Scattered Clouds
7:53 PM 41.0 °F 35.8 °F 30.9 °F 67% 30.14 in 10.0 mi West 8.1 mph - N/A   Partly Cloudy
8:53 PM 39.9 °F 32.9 °F 30.9 °F 70% 30.15 in 10.0 mi WNW 11.5 mph - N/A   Partly Cloudy
9:53 PM 39.0 °F 31.8 °F 30.9 °F 73% 30.16 in 10.0 mi West 11.5 mph - N/A   Clear
10:53 PM 37.9 °F 31.5 °F 30.9 °F 76% 30.18 in 10.0 mi West 9.2 mph - N/A   Clear
11:53 PM 37.0 °F 29.3 °F 30.0 °F 76% 30.19 in 10.0 mi West 11.5 mph - N/A   Clear